Location: Coleto Creek Park and Reservoir
(28.7196°N, 97.1740°W)
Time: 14:06:05

Hubble Space Telescope - Visible Passes

Search period start: 25 October 2016 00:00
Search period end: 04 November 2016 00:00
Orbit: 538 x 542 km, 28.5° (Epoch: 24 October)

Date Brightness Start Highest point End Pass type
(mag) Time Alt. Az. Time Alt. Az. Time Alt. Az.
31 Oct 3.5 05:50:40 10° S 05:52:33 13° SSE 05:54:26 10° SE visible
01 Nov 3.1 05:41:56 16° SSE 05:42:36 17° SSE 05:45:17 10° ESE visible
02 Nov 2.9 05:33:07 21° SSE 05:33:07 21° SSE 05:35:51 10° ESE visible
02 Nov 1.3 07:09:32 10° WSW 07:13:36 59° SSE 07:17:42 10° E visible
03 Nov 3.0 05:24:11 22° SE 05:24:11 22° SE 05:26:15 10° E visible
03 Nov 1.0 06:59:37 10° WSW 07:03:44 68° S 07:07:52 10° E visible
